Вернуться в каталог

STARLINK-30996

АктивенСвязьVLEO
NORAD 59023·PAYLOAD·🇺🇸 United States

Запущен Feb 25, 2024 с Cape Canaveral Space Force Station

Loading…

Ближайшие Пролёты (ближайшие 24 часа)

TLE

СвежийSource: CelesTrak SupGP

Эпоха: Sep 14, 2026, 22:46 UTC

1 59023C 24038A   26257.94909722  .00023351  00000+0  84577-3 0  2574
2 59023  43.0017  38.2199 0001550 280.3638  39.5967 15.27567345    14

Отслеживайте STARLINK-30996 в реальном времени с AllMySat

Download on the App Store